SCP
-0 0 -0 0 0 0 0 0 0 -0 -0 -0 0 0 0 0 0 0 -0 -0 -0 0
-0 -0 0 0 0 0 0 0 0 0 0 0 -0 0 0 0 0 0 -0 -0 -0 -0
0 0 0 1 0 0 0 0 1 1 0 0 0 -0 -0 0 -0 0 0 -0 -0 -0
-1 -0 -0 0 1 1 1 1 0 1 1 0 0 0 0 -0 -0 -0 -0 0 -0 -0
-2 -2 -2 -1 -0 0 1 1 1 1 1 1 0 0 0 0 -0 0 -0 -0 -0 -0
-2 -2 -2 -2 -1 -1 -0 0 0 0 1 1 1 1 1 0 0 0 0 -0 -0 -0
-1 -2 -2 -1 -1 -2 -1 -1 -1 -1 -1 0 1 1 1 0 0 0 0 0 0 -0
-0 -0 -0 -1 -1 -1 -1 -1 -1 -1 -1 -1 -1 -0 -0 0 0 0 0 0 0 0
-0 -0 -0 -0 -0 -1 -2 -1 -1 -3 -3 -3 -1 -1 -1 -0 0 1 1 1 2 1
0 -0 -0 -0 -0 -0 -0 0 -1 -2 -2 -4 -4 -1 -1 -0 1 1 1 2 2 2
1 1 1 0 -0 1 2 1 1 0 -1 -1 -2 -1 -0 -0 0 1 1 1 2 4
3 2 1 -0 -0 2 3 2 2 2 1 0 0 0 0 0 1 1 1 1 2 2
5 3 3 2 2 3 3 3 3 2 3 2 2 3 1 0 4 3 3 4 4 2
5 6 4 4 3 3 3 2 2 3 3 4 4 4 1 0 6 7 5 6 6 9
Wind_Speed_500mb
81 63 63 55 45 44 39 38 37 45 42 43 37 37 36 29 25 25 25 25 26 18
82 82 68 63 60 49 47 41 44 43 40 44 45 44 39 34 36 33 35 30 29 31
88 85 84 73 72 61 57 51 41 50 46 42 44 48 47 41 38 40 36 35 37 36
95 93 89 90 87 77 68 65 61 52 52 50 52 52 53 49 41 49 45 43 45 49
100 97 97 93 93 90 86 80 75 67 67 58 55 57 59 57 50 55 52 50 53 56
102 103 103 98 92 90 87 85 80 78 78 72 67 65 67 65 63 62 64 58 59 58
97 105 102 102 97 90 89 88 87 87 82 79 75 73 72 74 75 73 73 71 65 63
92 92 94 97 94 92 96 93 91 89 90 87 83 80 84 81 84 81 81 75 71 68
86 86 90 92 99 95 93 97 98 97 95 95 94 88 83 81 84 85 85 86 78 76
87 91 91 89 90 103 108 102 106 104 99 99 103 99 94 88 85 84 91 92 92 89
91 87 90 92 94 93 94 103 105 107 106 102 104 105 103 100 94 93 90 93 97 94
82 89 87 96 94 93 90 93 99 96 97 105 105 106 108 105 105 105 102 99 98 96
82 84 89 89 88 86 86 88 80 84 92 97 106 108 110 110 108 110 113 113 109 108
74 83 85 83 81 81 80 72 78 83 87 93 101 108 113 114 114 118 119 110 108 112
Wind_Direction_500mb
219 216 213 213 211 215 216 222 222 235 236 226 221 223 223 223 226 230 228 226 201 207
220 220 215 214 220 214 217 217 219 220 231 217 216 221 218 220 236 215 236 233 228 209
224 225 223 220 218 220 217 219 220 221 218 215 216 216 221 223 221 233 226 221 240 230
227 229 230 228 231 227 226 220 216 225 231 221 215 219 223 216 221 242 233 223 224 242
228 230 232 232 230 235 234 234 230 224 232 233 225 221 226 229 219 230 236 232 229 236
226 228 230 234 235 233 235 236 234 236 233 236 234 231 229 232 233 223 237 237 238 237
221 227 230 230 234 232 231 232 234 233 237 237 237 237 237 237 237 234 233 240 239 242
225 222 223 227 231 233 232 234 235 236 236 237 236 234 237 237 238 238 235 235 240 241
221 223 222 222 227 230 232 232 233 236 237 237 236 235 236 239 236 239 241 239 237 240
220 221 222 222 222 229 231 231 233 236 238 238 239 238 238 237 238 239 242 242 242 240
218 219 223 226 224 225 227 232 234 237 240 241 242 241 240 239 239 242 239 244 245 242
219 218 219 228 230 227 225 229 233 233 235 239 240 241 240 239 238 242 244 243 243 243
219 218 219 225 226 227 227 230 230 231 234 238 241 240 239 238 237 236 243 246 244 246
222 219 222 226 225 228 229 224 232 232 237 238 242 241 240 238 236 238 238 238 241 241
Wind_Speed_850mb
81 63 63 55 45 44 39 38 37 45 42 43 37 37 36 29 25 25 25 25 26 18
82 82 68 63 60 49 47 41 44 43 40 44 45 44 39 34 36 33 35 30 29 31
88 85 84 73 72 61 57 51 41 50 46 42 44 48 47 41 38 40 36 35 37 36
95 93 89 90 87 77 68 65 61 52 52 50 52 52 53 49 41 49 45 43 45 49
100 97 97 93 93 90 86 80 75 67 67 58 55 57 59 57 50 55 52 50 53 56
102 103 103 98 92 90 87 85 80 78 78 72 67 65 67 65 63 62 64 58 59 58
97 105 102 102 97 90 89 88 87 87 82 79 75 73 72 74 75 73 73 71 65 63
92 92 94 97 94 92 96 93 91 89 90 87 83 80 84 81 84 81 81 75 71 68
86 86 90 92 99 95 93 97 98 97 95 95 94 88 83 81 84 85 85 86 78 76
87 91 91 89 90 103 108 102 106 104 99 99 103 99 94 88 85 84 91 92 92 89
91 87 90 92 94 93 94 103 105 107 106 102 104 105 103 100 94 93 90 93 97 94
82 89 87 96 94 93 90 93 99 96 97 105 105 106 108 105 105 105 102 99 98 96
82 84 89 89 88 86 86 88 80 84 92 97 106 108 110 110 108 110 113 113 109 108
74 83 85 83 81 81 80 72 78 83 87 93 101 108 113 114 114 118 119 110 108 112
Wind_Direction_850mb
219 216 213 213 211 215 216 222 222 235 236 226 221 223 223 223 226 230 228 226 201 207
220 220 215 214 220 214 217 217 219 220 231 217 216 221 218 220 236 215 236 233 228 209
224 225 223 220 218 220 217 219 220 221 218 215 216 216 221 223 221 233 226 221 240 230
227 229 230 228 231 227 226 220 216 225 231 221 215 219 223 216 221 242 233 223 224 242
228 230 232 232 230 235 234 234 230 224 232 233 225 221 226 229 219 230 236 232 229 236
226 228 230 234 235 233 235 236 234 236 233 236 234 231 229 232 233 223 237 237 238 237
221 227 230 230 234 232 231 232 234 233 237 237 237 237 237 237 237 234 233 240 239 242
225 222 223 227 231 233 232 234 235 236 236 237 236 234 237 237 238 238 235 235 240 241
221 223 222 222 227 230 232 232 233 236 237 237 236 235 236 239 236 239 241 239 237 240
220 221 222 222 222 229 231 231 233 236 238 238 239 238 238 237 238 239 242 242 242 240
218 219 223 226 224 225 227 232 234 237 240 241 242 241 240 239 239 242 239 244 245 242
219 218 219 228 230 227 225 229 233 233 235 239 240 241 240 239 238 242 244 243 243 243
219 218 219 225 226 227 227 230 230 231 234 238 241 240 239 238 237 236 243 246 244 246
222 219 222 226 225 228 229 224 232 232 237 238 242 241 240 238 236 238 238 238 241 241